When you browse on this site, cookies collect data to enhance your experience and personalize the content and advertising you see.
Visit our Privacy Policy to learn more. By continuing to use the site, you agree to this use of cookies and data.
  • In Romania
  • List of Countries
  • For 7 days
  • Water Temperature
  • Weather Map
  • Weather Widgets
  • user-avatar
    Login

    Hourly Weather Bedford

    Today, 2 June, Tuesday

    Time Temperature Precipitation Wind Pressure Humidity
    00:00 +10°C° 0 mm 2 mps 764 mmHg 94%
    01:00 +9°C° 0 mm 2 mps 764 mmHg 94%
    02:00 +9°C° 0 mm 2 mps 764 mmHg 94%
    03:00 +8°C° 0 mm 2 mps 764 mmHg 94%
    04:00 +9°C° 0 mm 2 mps 763 mmHg 93%
    05:00 +10°C° 0 mm 2 mps 763 mmHg 91%
    06:00 +12°C° 0 mm 2 mps 763 mmHg 89%
    07:00 +13°C° 0 mm 2 mps 763 mmHg 83%
    08:00 +14°C° 0 mm 3 mps 763 mmHg 76%
    09:00 +17°C° 0 mm 3 mps 763 mmHg 70%
    10:00 +18°C° 0 mm 2 mps 762 mmHg 67%
    11:00 +19°C° 0 mm 2 mps 762 mmHg 63%
    12:00 +20°C° 0 mm 2 mps 762 mmHg 60%
    13:00 +20°C° 0 mm 2 mps 761 mmHg 59%
    14:00 +20°C° 0 mm 2 mps 761 mmHg 59%
    15:00 +21°C° 0 mm 2 mps 760 mmHg 59%
    16:00 +20°C° 0 mm 2 mps 760 mmHg 63%
    17:00 +20°C° 0 mm 2 mps 759 mmHg 68%
    18:00 +20°C° 0 mm 2 mps 759 mmHg 72%
    19:00 +19°C° 0 mm 1 mps 759 mmHg 76%
    20:00 +16°C° 0 mm 1 mps 758 mmHg 80%
    21:00 +12°C° 0 mm 0 mps 758 mmHg 84%
    22:00 +13°C° 0 mm 1 mps 758 mmHg 84%
    23:00 +13°C° 0 mm 1 mps 757 mmHg 83%

    Tomorrow, 3 June, Wednesday

    Time Temperature Precipitation Wind Pressure Humidity
    00:00 +13°C° 0 mm 2 mps 757 mmHg 83%
    01:00 +13°C° 0 mm 2 mps 756 mmHg 83%
    02:00 +13°C° 0 mm 2 mps 756 mmHg 84%
    03:00 +12°C° 0 mm 2 mps 755 mmHg 84%
    04:00 +13°C° 0 mm 2 mps 755 mmHg 83%
    05:00 +13°C° 0 mm 2 mps 754 mmHg 83%
    06:00 +14°C° 0 mm 2 mps 754 mmHg 82%
    07:00 +13°C° 0 mm 3 mps 754 mmHg 83%
    08:00 +13°C° 0 mm 3 mps 754 mmHg 83%
    09:00 +13°C° 0 mm 4 mps 754 mmHg 84%
    10:00 +13°C° 0.1 mm 4 mps 754 mmHg 85%
    11:00 +12°C° 0.1 mm 4 mps 754 mmHg 85%
    12:00 +12°C° 0.1 mm 5 mps 753 mmHg 86%
    13:00 +12°C° 0 mm 5 mps 753 mmHg 85%
    14:00 +12°C° 0 mm 5 mps 753 mmHg 84%
    15:00 +13°C° 0 mm 6 mps 753 mmHg 83%
    16:00 +13°C° 0 mm 5 mps 753 mmHg 82%
    17:00 +13°C° 0 mm 5 mps 753 mmHg 80%
    18:00 +13°C° 0 mm 5 mps 752 mmHg 79%
    19:00 +12°C° 0 mm 5 mps 753 mmHg 79%
    20:00 +12°C° 0 mm 4 mps 753 mmHg 80%
    21:00 +11°C° 0 mm 4 mps 753 mmHg 80%
    22:00 +10°C° 0 mm 4 mps 753 mmHg 84%
    23:00 +10°C° 0 mm 4 mps 753 mmHg 88%

    Day after tomorrow, 4 June, Thursday

    Time Temperature Precipitation Wind Pressure Humidity
    00:00 +8°C° 0 mm 4 mps 753 mmHg 91%
    01:00 +8°C° 0 mm 4 mps 752 mmHg 92%
    02:00 +8°C° 0 mm 4 mps 752 mmHg 93%
    03:00 +8°C° 0 mm 4 mps 752 mmHg 94%
    04:00 +8°C° 0 mm 5 mps 751 mmHg 91%
    05:00 +9°C° 0 mm 5 mps 751 mmHg 88%
    06:00 +9°C° 0 mm 6 mps 751 mmHg 85%
    07:00 +9°C° 0 mm 6 mps 751 mmHg 79%
    08:00 +10°C° 0 mm 6 mps 751 mmHg 73%
    09:00 +11°C° 0 mm 6 mps 751 mmHg 67%
    10:00 +11°C° 0 mm 6 mps 750 mmHg 65%
    11:00 +13°C° 0 mm 5 mps 750 mmHg 62%
    12:00 +13°C° 0 mm 5 mps 750 mmHg 60%
    13:00 +13°C° 0.2 mm 5 mps 749 mmHg 63%
    14:00 +13°C° 0.2 mm 5 mps 749 mmHg 65%
    15:00 +13°C° 0.2 mm 5 mps 749 mmHg 68%
    16:00 +13°C° 0.1 mm 4 mps 749 mmHg 69%
    17:00 +13°C° 0.1 mm 3 mps 748 mmHg 70%
    18:00 +13°C° 0.1 mm 3 mps 748 mmHg 70%
    19:00 +11°C° 0.6 mm 3 mps 748 mmHg 78%
    20:00 +10°C° 0.6 mm 3 mps 749 mmHg 86%
    21:00 +9°C° 0.6 mm 3 mps 749 mmHg 93%
    22:00 +8°C° 0.4 mm 3 mps 749 mmHg 93%
    23:00 +7°C° 0.4 mm 3 mps 748 mmHg 93%

    5 June, Friday

    Time Temperature Precipitation Wind Pressure Humidity
    00:00 +7°C° 0.4 mm 2 mps 748 mmHg 93%
    01:00 +5°C° 0 mm 3 mps 748 mmHg 93%
    02:00 +4°C° 0 mm 3 mps 749 mmHg 92%
    03:00 +3°C° 0 mm 3 mps 749 mmHg 92%
    04:00 +4°C° 0 mm 4 mps 749 mmHg 90%
    05:00 +5°C° 0 mm 4 mps 749 mmHg 88%
    06:00 +6°C° 0 mm 5 mps 749 mmHg 86%
    07:00 +7°C° 0 mm 5 mps 749 mmHg 78%
    08:00 +9°C° 0 mm 5 mps 749 mmHg 70%
    09:00 +12°C° 0 mm 5 mps 749 mmHg 62%
    10:00 +12°C° 0 mm 5 mps 749 mmHg 63%
    11:00 +13°C° 0 mm 5 mps 749 mmHg 64%
    12:00 +14°C° 0 mm 5 mps 749 mmHg 64%
    13:00 +14°C° 0.2 mm 5 mps 748 mmHg 68%
    14:00 +14°C° 0.2 mm 5 mps 748 mmHg 72%
    15:00 +13°C° 0.2 mm 5 mps 748 mmHg 76%
    16:00 +13°C° 0.1 mm 4 mps 748 mmHg 76%
    17:00 +13°C° 0.1 mm 4 mps 747 mmHg 76%
    18:00 +12°C° 0.1 mm 4 mps 747 mmHg 77%
    19:00 +12°C° 0 mm 3 mps 747 mmHg 79%
    20:00 +11°C° 0 mm 3 mps 747 mmHg 82%
    21:00 +10°C° 0 mm 3 mps 747 mmHg 84%
    22:00 +10°C° 0.2 mm 3 mps 747 mmHg 88%
    23:00 +9°C° 0.2 mm 3 mps 747 mmHg 92%

    6 June, Saturday

    Time Temperature Precipitation Wind Pressure Humidity
    00:00 +9°C° 0.2 mm 3 mps 747 mmHg 96%
    01:00 +9°C° 0.2 mm 3 mps 747 mmHg 96%
    02:00 +9°C° 0.2 mm 3 mps 747 mmHg 96%
    03:00 +8°C° 0.2 mm 4 mps 747 mmHg 96%
    04:00 +8°C° 0 mm 4 mps 747 mmHg 95%
    05:00 +8°C° 0 mm 5 mps 747 mmHg 94%
    06:00 +9°C° 0 mm 5 mps 747 mmHg 92%
    07:00 +9°C° 0.2 mm 5 mps 747 mmHg 88%
    08:00 +10°C° 0.2 mm 6 mps 748 mmHg 83%
    09:00 +11°C° 0.2 mm 6 mps 748 mmHg 79%
    10:00 +13°C° 0.3 mm 6 mps 748 mmHg 73%
    11:00 +12°C° 0.3 mm 7 mps 748 mmHg 68%
    12:00 +14°C° 0.3 mm 7 mps 749 mmHg 62%
    13:00 +14°C° 0 mm 7 mps 748 mmHg 60%
    14:00 +14°C° 0 mm 7 mps 748 mmHg 58%
    15:00 +14°C° 0 mm 7 mps 748 mmHg 55%
    16:00 +12°C° 0.1 mm 7 mps 749 mmHg 60%
    17:00 +11°C° 0.1 mm 6 mps 749 mmHg 65%
    18:00 +10°C° 0.1 mm 6 mps 749 mmHg 70%
    19:00 +9°C° 0 mm 5 mps 749 mmHg 71%
    20:00 +7°C° 0 mm 5 mps 750 mmHg 73%
    21:00 +6°C° 0 mm 4 mps 750 mmHg 75%
    22:00 +5°C° 0 mm 4 mps 750 mmHg 77%
    23:00 +5°C° 0 mm 5 mps 750 mmHg 78%

    7 June, Sunday

    Time Temperature Precipitation Wind Pressure Humidity
    00:00 +3°C° 0 mm 5 mps 750 mmHg 80%
    01:00 +3°C° 0 mm 5 mps 750 mmHg 80%
    02:00 +3°C° 0 mm 5 mps 750 mmHg 80%
    03:00 +3°C° 0 mm 6 mps 750 mmHg 80%
    04:00 +4°C° 0 mm 6 mps 750 mmHg 77%
    05:00 +4°C° 0 mm 7 mps 751 mmHg 75%
    06:00 +5°C° 0 mm 7 mps 751 mmHg 73%
    07:00 +6°C° 0 mm 7 mps 751 mmHg 70%
    08:00 +8°C° 0 mm 7 mps 752 mmHg 68%
    09:00 +10°C° 0 mm 8 mps 752 mmHg 65%
    10:00 +10°C° 0.1 mm 7 mps 752 mmHg 65%
    11:00 +10°C° 0.1 mm 7 mps 753 mmHg 64%
    12:00 +11°C° 0.1 mm 7 mps 753 mmHg 64%
    13:00 +11°C° 0.2 mm 7 mps 753 mmHg 64%
    14:00 +11°C° 0.2 mm 7 mps 753 mmHg 64%
    15:00 +11°C° 0.2 mm 7 mps 754 mmHg 64%
    16:00 +11°C° 0.1 mm 6 mps 754 mmHg 66%
    17:00 +11°C° 0.1 mm 6 mps 754 mmHg 68%
    18:00 +10°C° 0.1 mm 5 mps 754 mmHg 69%
    19:00 +10°C° 0 mm 4 mps 755 mmHg 74%
    20:00 +7°C° 0 mm 4 mps 755 mmHg 78%
    21:00 +7°C° 0 mm 3 mps 755 mmHg 83%
    22:00 +5°C° 0 mm 3 mps 755 mmHg 85%
    23:00 +4°C° 0 mm 3 mps 755 mmHg 88%
    Show more